When you browse on this site, cookies collect data to enhance your experience and personalize the content and advertising you see.
Visit our Privacy Policy to learn more. By continuing to use the site, you agree to this use of cookies and data.
  • In Deutschland
  • Länderverzeichnis
  • Für 7 Tage
  • Wassertemperatur
  • Wetterkarte
  • Widgets
  • user-avatar
    Anmelden

    Stündliche Wetter Natitingou

    Heute, 25 Mai, Montag

    Zeit Temperatur Niederschläge Wind Luftdruck Luftfeuchtigkeit
    00:00 +27°C° 0 mm 2 m/S 718 mmHg 75%
    01:00 +27°C° 0.5 mm 2 m/S 718 mmHg 75%
    02:00 +27°C° 0.5 mm 2 m/S 717 mmHg 75%
    03:00 +26°C° 0.5 mm 2 m/S 717 mmHg 74%
    04:00 +26°C° 0.2 mm 1 m/S 717 mmHg 75%
    05:00 +26°C° 0.2 mm 1 m/S 718 mmHg 75%
    06:00 +26°C° 0.2 mm 1 m/S 718 mmHg 75%
    07:00 +26°C° 0.2 mm 0 m/S 719 mmHg 68%
    08:00 +28°C° 0.2 mm 0 m/S 719 mmHg 62%
    09:00 +30°C° 0.2 mm 0 m/S 720 mmHg 56%
    10:00 +32°C° 0 mm 0 m/S 719 mmHg 51%
    11:00 +35°C° 0 mm 1 m/S 719 mmHg 45%
    12:00 +37°C° 0 mm 1 m/S 719 mmHg 39%
    13:00 +36°C° 0 mm 1 m/S 718 mmHg 41%
    14:00 +36°C° 0 mm 1 m/S 717 mmHg 42%
    15:00 +35°C° 0 mm 1 m/S 716 mmHg 43%
    16:00 +35°C° 0 mm 2 m/S 716 mmHg 48%
    17:00 +32°C° 0 mm 2 m/S 716 mmHg 53%
    18:00 +31°C° 0 mm 2 m/S 716 mmHg 59%
    19:00 +30°C° 0 mm 2 m/S 716 mmHg 62%
    20:00 +29°C° 0 mm 1 m/S 717 mmHg 65%
    21:00 +28°C° 0 mm 1 m/S 717 mmHg 68%
    22:00 +27°C° 0 mm 1 m/S 717 mmHg 68%
    23:00 +27°C° 0 mm 1 m/S 717 mmHg 69%

    Morgen, 26 Mai, Dienstag

    Zeit Temperatur Niederschläge Wind Luftdruck Luftfeuchtigkeit
    00:00 +27°C° 0 mm 1 m/S 717 mmHg 70%
    01:00 +27°C° 0 mm 1 m/S 717 mmHg 72%
    02:00 +26°C° 0 mm 1 m/S 716 mmHg 73%
    03:00 +26°C° 0 mm 1 m/S 716 mmHg 75%
    04:00 +26°C° 0 mm 2 m/S 717 mmHg 78%
    05:00 +26°C° 0 mm 2 m/S 717 mmHg 81%
    06:00 +26°C° 0 mm 2 m/S 718 mmHg 83%
    07:00 +27°C° 0 mm 3 m/S 718 mmHg 77%
    08:00 +29°C° 0 mm 4 m/S 719 mmHg 70%
    09:00 +30°C° 0 mm 5 m/S 720 mmHg 63%
    10:00 +32°C° 0 mm 4 m/S 720 mmHg 57%
    11:00 +34°C° 0 mm 3 m/S 719 mmHg 51%
    12:00 +35°C° 0 mm 3 m/S 719 mmHg 45%
    13:00 +34°C° 0 mm 2 m/S 718 mmHg 49%
    14:00 +32°C° 0 mm 2 m/S 717 mmHg 52%
    15:00 +31°C° 0 mm 2 m/S 717 mmHg 55%
    16:00 +31°C° 0 mm 2 m/S 716 mmHg 57%
    17:00 +30°C° 0 mm 2 m/S 716 mmHg 59%
    18:00 +29°C° 0 mm 2 m/S 716 mmHg 61%
    19:00 +29°C° 0 mm 2 m/S 717 mmHg 63%
    20:00 +28°C° 0 mm 2 m/S 717 mmHg 66%
    21:00 +27°C° 0 mm 2 m/S 717 mmHg 69%
    22:00 +27°C° 0.2 mm 1 m/S 718 mmHg 70%
    23:00 +26°C° 0.2 mm 1 m/S 718 mmHg 72%

    übermorgen, 27 Mai, Mittwoch

    Zeit Temperatur Niederschläge Wind Luftdruck Luftfeuchtigkeit
    00:00 +26°C° 0.2 mm 1 m/S 718 mmHg 73%
    01:00 +26°C° 0.3 mm 1 m/S 718 mmHg 75%
    02:00 +25°C° 0.3 mm 2 m/S 718 mmHg 77%
    03:00 +25°C° 0.3 mm 2 m/S 717 mmHg 79%
    04:00 +25°C° 0.1 mm 2 m/S 718 mmHg 80%
    05:00 +25°C° 0.1 mm 2 m/S 718 mmHg 82%
    06:00 +25°C° 0.1 mm 2 m/S 718 mmHg 83%
    07:00 +26°C° 0 mm 2 m/S 719 mmHg 76%
    08:00 +27°C° 0 mm 2 m/S 719 mmHg 70%
    09:00 +29°C° 0 mm 2 m/S 720 mmHg 64%
    10:00 +31°C° 0 mm 2 m/S 719 mmHg 57%
    11:00 +33°C° 0 mm 1 m/S 719 mmHg 50%
    12:00 +36°C° 0 mm 1 m/S 719 mmHg 43%
    13:00 +36°C° 0 mm 1 m/S 718 mmHg 41%
    14:00 +36°C° 0 mm 1 m/S 717 mmHg 39%
    15:00 +37°C° 0 mm 1 m/S 717 mmHg 37%
    16:00 +35°C° 0 mm 1 m/S 717 mmHg 42%
    17:00 +34°C° 0 mm 1 m/S 716 mmHg 48%
    18:00 +32°C° 0 mm 1 m/S 716 mmHg 53%
    19:00 +31°C° 0 mm 1 m/S 717 mmHg 56%
    20:00 +30°C° 0 mm 1 m/S 717 mmHg 58%
    21:00 +29°C° 0 mm 1 m/S 718 mmHg 61%
    22:00 +29°C° 0.2 mm 1 m/S 718 mmHg 64%
    23:00 +28°C° 0.2 mm 1 m/S 718 mmHg 66%

    28 Mai, Donnerstag

    Zeit Temperatur Niederschläge Wind Luftdruck Luftfeuchtigkeit
    00:00 +28°C° 0.2 mm 1 m/S 718 mmHg 69%
    01:00 +27°C° 0.1 mm 1 m/S 717 mmHg 72%
    02:00 +27°C° 0.1 mm 1 m/S 717 mmHg 75%
    03:00 +26°C° 0.1 mm 1 m/S 717 mmHg 78%
    04:00 +26°C° 0 mm 1 m/S 717 mmHg 80%
    05:00 +26°C° 0 mm 1 m/S 717 mmHg 81%
    06:00 +26°C° 0 mm 2 m/S 717 mmHg 83%
    07:00 +28°C° 0 mm 2 m/S 717 mmHg 76%
    08:00 +29°C° 0 mm 2 m/S 718 mmHg 68%
    09:00 +31°C° 0 mm 2 m/S 718 mmHg 61%
    10:00 +35°C° 0 mm 2 m/S 718 mmHg 53%
    11:00 +37°C° 0 mm 2 m/S 718 mmHg 45%
    12:00 +39°C° 0 mm 2 m/S 718 mmHg 37%
    13:00 +38°C° 0 mm 2 m/S 717 mmHg 39%
    14:00 +38°C° 0 mm 2 m/S 716 mmHg 40%
    15:00 +37°C° 0 mm 2 m/S 715 mmHg 41%
    16:00 +35°C° 0 mm 1 m/S 715 mmHg 44%
    17:00 +34°C° 0 mm 1 m/S 715 mmHg 46%
    18:00 +31°C° 0 mm 0 m/S 714 mmHg 48%
    19:00 +30°C° 0.1 mm 0 m/S 715 mmHg 50%
    20:00 +32°C° 0.1 mm 1 m/S 715 mmHg 53%
    21:00 +31°C° 0.1 mm 1 m/S 716 mmHg 55%
    22:00 +30°C° 0.3 mm 1 m/S 716 mmHg 60%
    23:00 +29°C° 0.3 mm 1 m/S 716 mmHg 65%

    29 Mai, Freitag

    Zeit Temperatur Niederschläge Wind Luftdruck Luftfeuchtigkeit
    00:00 +28°C° 0.3 mm 1 m/S 716 mmHg 70%
    01:00 +28°C° 0.3 mm 2 m/S 716 mmHg 74%
    02:00 +27°C° 0.3 mm 2 m/S 716 mmHg 78%
    03:00 +26°C° 0.3 mm 2 m/S 716 mmHg 82%
    04:00 +26°C° 0 mm 2 m/S 716 mmHg 82%
    05:00 +26°C° 0 mm 3 m/S 716 mmHg 83%
    06:00 +26°C° 0 mm 3 m/S 716 mmHg 83%
    07:00 +27°C° 0 mm 3 m/S 717 mmHg 76%
    08:00 +29°C° 0 mm 3 m/S 717 mmHg 69%
    09:00 +32°C° 0 mm 4 m/S 718 mmHg 62%
    10:00 +33°C° 0 mm 3 m/S 717 mmHg 57%
    11:00 +35°C° 0 mm 3 m/S 717 mmHg 53%
    12:00 +36°C° 0 mm 3 m/S 717 mmHg 48%
    13:00 +36°C° 0 mm 3 m/S 716 mmHg 47%
    14:00 +37°C° 0 mm 2 m/S 715 mmHg 45%
    15:00 +37°C° 0 mm 2 m/S 715 mmHg 43%
    16:00 +35°C° 0.4 mm 2 m/S 714 mmHg 50%
    17:00 +32°C° 0.4 mm 2 m/S 714 mmHg 57%
    18:00 +30°C° 0.4 mm 3 m/S 714 mmHg 64%
    19:00 +29°C° 0.7 mm 3 m/S 715 mmHg 67%
    20:00 +28°C° 0.7 mm 3 m/S 715 mmHg 70%
    21:00 +27°C° 0.7 mm 3 m/S 716 mmHg 74%
    22:00 +27°C° 0.2 mm 3 m/S 716 mmHg 76%
    23:00 +27°C° 0.2 mm 2 m/S 716 mmHg 77%

    30 Mai, Samstag

    Zeit Temperatur Niederschläge Wind Luftdruck Luftfeuchtigkeit
    00:00 +27°C° 0.2 mm 2 m/S 716 mmHg 79%
    01:00 +27°C° 0 mm 2 m/S 716 mmHg 81%
    02:00 +27°C° 0 mm 2 m/S 716 mmHg 83%
    03:00 +26°C° 0 mm 2 m/S 716 mmHg 85%
    04:00 +26°C° 0 mm 2 m/S 716 mmHg 86%
    05:00 +26°C° 0 mm 1 m/S 716 mmHg 87%
    06:00 +26°C° 0 mm 1 m/S 717 mmHg 88%
    07:00 +27°C° 0 mm 2 m/S 717 mmHg 81%
    08:00 +29°C° 0 mm 2 m/S 718 mmHg 74%
    09:00 +30°C° 0 mm 3 m/S 718 mmHg 67%
    10:00 +33°C° 0 mm 3 m/S 718 mmHg 61%
    11:00 +34°C° 0 mm 3 m/S 718 mmHg 56%
    12:00 +36°C° 0 mm 3 m/S 717 mmHg 50%
    13:00 +36°C° 0 mm 2 m/S 717 mmHg 49%
    14:00 +36°C° 0 mm 2 m/S 716 mmHg 47%
    15:00 +37°C° 0 mm 2 m/S 716 mmHg 45%
    16:00 +34°C° 1.7 mm 3 m/S 715 mmHg 55%
    17:00 +31°C° 1.7 mm 3 m/S 715 mmHg 64%
    18:00 +29°C° 1.7 mm 4 m/S 715 mmHg 73%
    19:00 +28°C° 0.8 mm 3 m/S 716 mmHg 76%
    20:00 +27°C° 0.8 mm 2 m/S 716 mmHg 78%
    21:00 +27°C° 0.8 mm 1 m/S 716 mmHg 81%
    22:00 +27°C° 0 mm 2 m/S 716 mmHg 82%
    23:00 +27°C° 0 mm 2 m/S 717 mmHg 83%
    Mehr zeigen